Time,TemperatureF,DewpointF,PressureIn,WindDirection,WindDirectionDegrees,WindSpeedMPH,WindSpeedGustMPH,Humidity,HourlyPrecipIn,Conditions,Clouds,dailyrainin,SolarRadiationWatts/m^2,SoftwareType,DateUTC
2013-02-04 00:03:00,30.0,22.0,-100.00,NNW,333,7.0,18.0,73,0.00,,,0.34,0.000000,,2013-02-04 05:03:00,
2013-02-04 00:33:00,30.0,22.0,-100.00,NW,321,5.0,16.0,73,0.00,,,0.34,0.000000,,2013-02-04 05:33:00,
2013-02-04 00:42:00,30.0,22.0,-100.00,NW,321,5.0,16.0,73,0.00,,,0.34,0.000000,,2013-02-04 05:42:00,
2013-02-04 00:52:00,30.0,22.0,-100.00,NW,321,5.0,16.0,73,0.00,,,0.34,0.000000,,2013-02-04 05:52:00,
2013-02-04 01:02:00,30.0,22.0,-100.00,NW,321,5.0,16.0,73,0.00,,,0.34,0.000000,,2013-02-04 06:02:00,
2013-02-04 01:32:00,29.0,21.0,-100.00,WSW,254,5.0,12.0,71,0.00,,,0.34,0.000000,,2013-02-04 06:32:00,
2013-02-04 01:42:00,29.0,21.0,-100.00,WSW,254,5.0,12.0,71,0.00,,,0.34,0.000000,,2013-02-04 06:42:00,
2013-02-04 01:52:00,29.0,21.0,-100.00,WSW,254,5.0,12.0,71,0.00,,,0.34,0.000000,,2013-02-04 06:52:00,
2013-02-04 02:02:00,29.0,21.0,-100.00,WSW,254,5.0,12.0,71,0.00,,,0.34,0.000000,,2013-02-04 07:02:00,
2013-02-04 02:32:00,29.0,21.0,-100.00,WNW,297,6.0,17.0,72,0.00,,,0.34,0.000000,,2013-02-04 07:32:00,
2013-02-04 02:42:00,29.0,21.0,-100.00,WNW,297,6.0,17.0,72,0.00,,,0.34,0.000000,,2013-02-04 07:42:00,
2013-02-04 02:52:00,29.0,21.0,-100.00,WNW,297,6.0,17.0,72,0.00,,,0.34,0.000000,,2013-02-04 07:52:00,
2013-02-04 03:01:00,29.0,21.0,-100.00,WNW,297,6.0,17.0,72,0.00,,,0.34,0.000000,,2013-02-04 08:01:00,
2013-02-04 03:32:00,28.0,20.0,-100.00,SW,220,2.0,15.0,70,0.00,,,0.34,0.000000,,2013-02-04 08:32:00,
2013-02-04 03:42:00,28.0,20.0,-100.00,SW,220,2.0,15.0,70,0.00,,,0.34,0.000000,,2013-02-04 08:42:00,
2013-02-04 03:52:00,28.0,20.0,-100.00,SW,220,2.0,15.0,70,0.00,,,0.34,0.000000,,2013-02-04 08:52:00,
2013-02-04 04:02:00,28.0,20.0,-100.00,SW,220,2.0,15.0,70,0.00,,,0.34,0.000000,,2013-02-04 09:02:00,
2013-02-04 04:32:00,26.0,18.0,-100.00,South,190,1.0,5.0,72,0.00,,,0.34,0.000000,,2013-02-04 09:32:00,
2013-02-04 04:42:00,26.0,18.0,-100.00,South,190,1.0,5.0,72,0.00,,,0.34,0.000000,,2013-02-04 09:42:00,
2013-02-04 04:52:00,26.0,18.0,-100.00,South,190,1.0,5.0,72,0.00,,,0.34,0.000000,,2013-02-04 09:52:00,
2013-02-04 05:01:00,26.0,18.0,-100.00,South,190,1.0,5.0,72,0.00,,,0.34,0.000000,,2013-02-04 10:01:00,
2013-02-04 05:32:00,26.0,21.0,-100.00,WNW,300,4.0,5.0,81,0.00,,,0.34,0.000000,,2013-02-04 10:32:00,
2013-02-04 05:42:00,26.0,21.0,-100.00,WNW,300,4.0,5.0,81,0.00,,,0.34,0.000000,,2013-02-04 10:42:00,
2013-02-04 05:52:00,26.0,21.0,-100.00,WNW,300,4.0,5.0,81,0.00,,,0.34,0.000000,,2013-02-04 10:52:00,
2013-02-04 06:02:00,26.0,21.0,-100.00,WNW,300,4.0,5.0,81,0.00,,,0.34,0.000000,,2013-02-04 11:02:00,
2013-02-04 06:33:00,25.0,20.0,-100.00,South,184,1.0,5.0,82,0.00,,,0.34,0.000000,,2013-02-04 11:33:00,
2013-02-04 06:42:00,25.0,20.0,-100.00,South,184,1.0,5.0,82,0.00,,,0.34,0.000000,,2013-02-04 11:42:00,
2013-02-04 06:52:00,25.0,20.0,-100.00,South,184,1.0,5.0,82,0.00,,,0.34,0.000000,,2013-02-04 11:52:00,
2013-02-04 07:02:00,25.0,20.0,-100.00,South,184,1.0,5.0,82,0.00,,,0.34,0.000000,,2013-02-04 12:02:00,
2013-02-04 07:33:00,25.0,21.0,-100.00,North,350,1.0,4.0,86,0.00,,,0.34,0.000000,,2013-02-04 12:33:00,
2013-02-04 07:42:00,25.0,21.0,-100.00,North,350,1.0,4.0,86,0.00,,,0.34,0.000000,,2013-02-04 12:42:00,
2013-02-04 07:53:00,25.0,21.0,-100.00,North,350,1.0,4.0,86,0.00,,,0.34,0.000000,,2013-02-04 12:53:00,
2013-02-04 08:03:00,25.0,21.0,-100.00,North,350,1.0,4.0,86,0.00,,,0.34,0.000000,,2013-02-04 13:03:00,
2013-02-04 08:33:00,26.0,22.0,-100.00,NNE,23,0.0,3.0,85,0.00,,,0.34,6.000000,,2013-02-04 13:33:00,
2013-02-04 08:42:00,26.0,22.0,-100.00,NNE,23,0.0,3.0,85,0.00,,,0.34,6.000000,,2013-02-04 13:42:00,
2013-02-04 08:52:00,26.0,22.0,-100.00,NNE,23,0.0,3.0,85,0.00,,,0.34,6.000000,,2013-02-04 13:52:00,
2013-02-04 09:03:00,26.0,22.0,-100.00,NNE,23,0.0,3.0,85,0.00,,,0.34,6.000000,,2013-02-04 14:03:00,
2013-02-04 09:33:00,30.0,23.0,-100.00,East,101,2.0,4.0,76,0.00,,,0.34,107.000000,,2013-02-04 14:33:00,
2013-02-04 09:42:00,30.0,23.0,-100.00,East,101,2.0,4.0,76,0.00,,,0.34,107.000000,,2013-02-04 14:42:00,
2013-02-04 09:53:00,30.0,23.0,-100.00,East,101,2.0,4.0,76,0.00,,,0.34,107.000000,,2013-02-04 14:53:00,
2013-02-04 10:03:00,30.0,23.0,-100.00,East,101,2.0,4.0,76,0.00,,,0.34,107.000000,,2013-02-04 15:03:00,
2013-02-04 10:33:00,33.0,23.0,-100.00,North,352,2.0,4.0,67,0.00,,,0.34,142.000000,,2013-02-04 15:33:00,
2013-02-04 10:43:00,33.0,23.0,-100.00,North,352,2.0,4.0,67,0.00,,,0.34,142.000000,,2013-02-04 15:43:00,
2013-02-04 10:53:00,33.0,23.0,-100.00,North,352,2.0,4.0,67,0.00,,,0.34,142.000000,,2013-02-04 15:53:00,
2013-02-04 11:03:00,33.0,23.0,-100.00,North,352,2.0,4.0,67,0.00,,,0.34,142.000000,,2013-02-04 16:03:00,
2013-02-04 13:33:00,46.0,23.0,-100.00,North,9,3.0,6.0,40,-99.99,,,0.01,335.000000,,2013-02-04 18:33:00,
2013-02-04 13:42:00,46.0,23.0,-100.00,North,9,3.0,6.0,40,-99.99,,,0.01,335.000000,,2013-02-04 18:42:00,
2013-02-04 13:52:00,46.0,23.0,-100.00,North,9,3.0,6.0,40,-99.99,,,0.01,335.000000,,2013-02-04 18:52:00,
2013-02-04 14:02:00,46.0,23.0,-100.00,North,9,3.0,6.0,40,-99.99,,,0.01,335.000000,,2013-02-04 19:02:00,
2013-02-04 14:32:00,47.0,22.0,-100.00,South,171,7.0,13.0,37,0.00,,,0.00,311.000000,,2013-02-04 19:32:00,
2013-02-04 14:42:00,47.0,22.0,-100.00,South,171,7.0,13.0,37,0.00,,,0.00,311.000000,,2013-02-04 19:42:00,
2013-02-04 14:52:00,47.0,22.0,-100.00,South,171,7.0,13.0,37,0.00,,,0.00,311.000000,,2013-02-04 19:52:00,
2013-02-04 15:02:00,47.0,22.0,-100.00,South,171,7.0,13.0,37,0.00,,,0.00,311.000000,,2013-02-04 20:02:00,
2013-02-04 16:32:00,47.0,21.0,-100.00,SSE,163,3.0,10.0,36,-99.99,,,0.00,206.000000,,2013-02-04 21:32:00,
2013-02-04 16:43:00,47.0,21.0,-100.00,SSE,163,3.0,10.0,36,-99.99,,,0.00,206.000000,,2013-02-04 21:43:00,
2013-02-04 16:52:00,47.0,21.0,-100.00,SSE,163,3.0,10.0,36,-99.99,,,0.00,206.000000,,2013-02-04 21:52:00,
2013-02-04 17:03:00,47.0,21.0,-100.00,SSE,163,3.0,10.0,36,-99.99,,,0.00,206.000000,,2013-02-04 22:03:00,
2013-02-04 17:33:00,45.0,23.0,-100.00,SE,129,2.0,12.0,42,0.00,,,0.00,141.000000,,2013-02-04 22:33:00,
2013-02-04 17:42:00,45.0,23.0,-100.00,SE,129,2.0,12.0,42,0.00,,,0.00,141.000000,,2013-02-04 22:42:00,
2013-02-04 17:52:00,45.0,23.0,-100.00,SE,129,2.0,12.0,42,0.00,,,0.00,141.000000,,2013-02-04 22:52:00,
2013-02-04 18:02:00,45.0,23.0,-100.00,SE,129,2.0,12.0,42,0.00,,,0.00,141.000000,,2013-02-04 23:02:00,
2013-02-04 18:32:00,42.0,21.0,-100.00,SSE,167,2.0,5.0,43,0.00,,,0.00,43.000000,,2013-02-04 23:32:00,
2013-02-04 18:42:00,42.0,21.0,-100.00,SSE,167,2.0,5.0,43,0.00,,,0.00,43.000000,,2013-02-04 23:42:00,
2013-02-04 18:53:00,42.0,21.0,-100.00,SSE,167,2.0,5.0,43,0.00,,,0.00,43.000000,,2013-02-04 23:53:00,
2013-02-04 19:02:00,42.0,21.0,-100.00,SSE,167,2.0,5.0,43,0.00,,,0.00,43.000000,,2013-02-05 00:02:00,
2013-02-04 19:32:00,38.0,21.0,-100.00,North,351,2.0,10.0,49,0.00,,,0.00,1.000000,,2013-02-05 00:32:00,
2013-02-04 19:42:00,38.0,21.0,-100.00,North,351,2.0,10.0,49,0.00,,,0.00,1.000000,,2013-02-05 00:42:00,
2013-02-04 19:52:00,38.0,21.0,-100.00,North,351,2.0,10.0,49,0.00,,,0.00,1.000000,,2013-02-05 00:52:00,
2013-02-04 20:02:00,38.0,21.0,-100.00,North,351,2.0,10.0,49,0.00,,,0.00,1.000000,,2013-02-05 01:02:00,
2013-02-04 20:33:00,37.0,24.0,-100.00,SSW,209,3.0,5.0,60,0.00,,,0.00,0.000000,,2013-02-05 01:33:00,
2013-02-04 20:42:00,37.0,24.0,-100.00,SSW,209,3.0,5.0,60,0.00,,,0.00,0.000000,,2013-02-05 01:42:00,
2013-02-04 20:52:00,37.0,24.0,-100.00,SSW,209,3.0,5.0,60,0.00,,,0.00,0.000000,,2013-02-05 01:52:00,
2013-02-04 21:02:00,37.0,24.0,-100.00,SSW,209,3.0,5.0,60,0.00,,,0.00,0.000000,,2013-02-05 02:02:00,
2013-02-04 21:32:00,38.0,24.0,-100.00,North,2,1.0,7.0,57,0.00,,,0.00,0.000000,,2013-02-05 02:32:00,
2013-02-04 21:42:00,38.0,24.0,-100.00,North,2,1.0,7.0,57,0.00,,,0.00,0.000000,,2013-02-05 02:42:00,
2013-02-04 21:52:00,38.0,24.0,-100.00,North,2,1.0,7.0,57,0.00,,,0.00,0.000000,,2013-02-05 02:52:00,
2013-02-04 22:02:00,38.0,24.0,-100.00,North,2,1.0,7.0,57,0.00,,,0.00,0.000000,,2013-02-05 03:02:00,
2013-02-04 22:32:00,36.0,23.0,-100.00,NNE,30,1.0,4.0,58,0.00,,,0.00,0.000000,,2013-02-05 03:32:00,
2013-02-04 22:42:00,36.0,23.0,-100.00,NNE,30,1.0,4.0,58,0.00,,,0.00,0.000000,,2013-02-05 03:42:00,
2013-02-04 22:52:00,36.0,23.0,-100.00,NNE,30,1.0,4.0,58,0.00,,,0.00,0.000000,,2013-02-05 03:52:00,
2013-02-04 23:01:00,36.0,23.0,-100.00,NNE,30,1.0,4.0,58,0.00,,,0.00,0.000000,,2013-02-05 04:01:00,
2013-02-04 23:32:00,36.0,25.0,-100.00,North,356,3.0,5.0,65,0.00,,,0.00,0.000000,,2013-02-05 04:32:00,
2013-02-04 23:42:00,36.0,25.0,-100.00,North,356,3.0,5.0,65,0.00,,,0.00,0.000000,,2013-02-05 04:42:00,
2013-02-04 23:52:00,36.0,25.0,-100.00,North,356,3.0,5.0,65,0.00,,,0.00,0.000000,,2013-02-05 04:52:00,